Location: Ostrava
(49.8330°N, 18.2830°E)
Time: 10:24:59
(UTC+02:00)

Iridium 39 - Visible Passes

Search period start: 29 September 2016 00:00
Search period end: 09 October 2016 00:00
Orbit: 723 x 753 km, 86.4° (Epoch: 28 September)

Date Brightness Start Highest point End Pass type
(mag) Time Alt. Az. Time Alt. Az. Time Alt. Az.
29 Sep 6.8 19:29:13 10° NNE 19:33:27 27° ENE 19:37:18 12° SE visible
29 Sep 7.0 21:08:52 10° NNW 21:13:31 42° W 21:16:59 17° SSW visible
30 Sep 5.8 20:23:33 10° N 20:28:32 88° E 20:32:34 16° S visible
30 Sep 8.7 22:05:18 10° NW 22:07:41 14° WNW 22:10:03 10° WSW visible
01 Oct 6.3 19:38:37 10° N 19:43:18 40° E 19:47:59 10° SSE visible
01 Oct 7.8 21:18:51 10° NNW 21:23:03 28° W 21:27:15 10° SW visible
02 Oct 7.2 18:54:12 10° NNE 18:57:49 20° ENE 19:01:25 10° ESE visible
02 Oct 6.3 20:33:16 10° N 20:38:11 61° W 20:43:04 10° SSW visible
03 Oct 5.9 19:48:08 10° N 19:53:05 61° E 19:58:00 10° SSE visible
03 Oct 8.4 21:29:02 10° NNW 21:32:31 19° WNW 21:35:59 10° WSW visible
04 Oct 6.7 19:03:25 10° NNE 19:07:44 29° ENE 19:12:02 10° SE visible
04 Oct 7.2 20:43:07 10° NNW 20:47:45 40° W 20:52:23 10° SSW visible
05 Oct 5.9 19:57:47 10° N 20:02:47 88° W 20:07:46 10° S visible
05 Oct 8.9 21:39:41 10° NW 21:41:54 13° WNW 21:44:06 10° W visible
06 Oct 6.2 19:12:50 10° N 19:17:34 42° E 19:22:18 10° SSE visible
06 Oct 7.9 20:53:07 10° NNW 20:57:16 27° W 21:01:26 10° SW visible
07 Oct 6.5 20:07:32 10° N 20:12:25 59° W 20:17:19 10° SSW visible
08 Oct 5.9 19:22:22 10° N 19:27:20 65° E 19:32:18 10° SSE visible
08 Oct 8.5 21:03:20 10° NW 21:06:44 19° WNW 21:10:07 10° WSW visible
